Home   Weather   Garland   Past weeks

Flag for USA Past Weather in Garland, Texas, USA — Yesterday and Last 2 Weeks

Now
60 °F

Overcast.


Feels Like: 60 °F
Forecast: 57 / 76 °F
Wind: No wind

Location: Mesquite Metro Airport

Current Time: Feb 27, 2017 at 3:28:41 am

Latest Report: Feb 27, 2017 at 2:55 am


Visibility: 10 mi

Pressure: 29.93 "Hg

Humidity: 91%

Dew Point: 57 °F

Location of GarlandLocation

Past Weather in Garland — Graph

°F

Garland Temperature Yesterday

Maximum temperature yesterday: 63 °F (at 2:50 pm)
Minimum temperature yesterday: 36 °F (at 2:55 am)
Average temperature yesterday: 49 °F

High & Low Weather Summary for the Past Weeks

 TemperatureHumidityPressure
High86 °F (Feb 23, 2:50 pm)100% (Feb 12, 6:50 am)30.30 "Hg (Feb 12, 6:50 am)
Low32 °F (Feb 16, 6:50 am)22% (Feb 23, 2:50 pm)29.50 "Hg (Feb 23, 4:50 pm)
Average56 °F69%29.95 "Hg
* Reported Feb 12 2:35 am — Feb 27 2:15 am, Garland, Weather by CustomWeather, © 2017

Note: Actual official high and low records may vary slightly from our data, if they occured in-between our weather recording intervals... More about our weather records

Advertising

Garland Weather History for the Previous 24 Hours

Scroll right to see more
 ConditionsComfort  
Time TempWeatherWind HumidityBarometerVisibility
2:15 am
Mon, Feb 27
59 °FOvercast.3 mph91%29.93 "Hg10 mi
1:55 am59 °FOvercast.3 mph90%29.93 "Hg10 mi
1:15 am59 °FOvercast.5 mph90%29.92 "Hg10 mi
12:55 am58 °FOvercast.No wind91%29.93 "Hg10 mi
12:35 am59 °FMostly cloudy.No wind89%29.92 "Hg10 mi
11:55 pm
Sun, Feb 26
58 °FOvercast.5 mph89%29.93 "Hg10 mi
11:15 pm57 °FPartly cloudy.No wind88%29.93 "Hg10 mi
10:55 pm58 °FPartly cloudy.6 mph87%29.93 "Hg10 mi
10:15 pm58 °FMostly cloudy.7 mph85%29.93 "Hg10 mi
9:35 pm58 °FOvercast.5 mph89%29.94 "Hg10 mi
8:55 pm58 °FMostly cloudy.3 mph86%29.93 "Hg10 mi
7:50 pm57 °FMostly cloudy.No wind88%29.91 "Hg10 mi
6:50 pm59 °FLight rain. Mostly cloudy.No wind88%29.90 "Hg10 mi
5:50 pm61 °FLight rain. Mostly cloudy.No wind77%29.89 "Hg10 mi
4:50 pm61 °FMostly cloudy.No wind77%29.90 "Hg10 mi
3:50 pm63 °FOvercast.5 mph64%29.90 "Hg10 mi
2:50 pm63 °FOvercast.14 mph59%29.91 "Hg10 mi
1:50 pm61 °FOvercast.12 mph59%29.93 "Hg10 mi
12:50 pm57 °FOvercast.7 mph63%29.97 "Hg10 mi
11:50 am57 °FOvercast.14 mph59%29.99 "Hg10 mi
10:50 am55 °FOvercast.10 mph55%30.01 "Hg10 mi
9:50 am55 °FSunny.16 mph51%30.02 "Hg10 mi
8:50 am48 °FSunny.7 mph58%30.02 "Hg10 mi
7:50 am43 °FSunny.13 mph66%30.00 "Hg10 mi
6:50 am39 °FClear.6 mph70%30.00 "Hg10 mi
6:15 am37 °FClear.5 mph76%30.00 "Hg10 mi
5:55 am37 °FClear.5 mph73%30.01 "Hg10 mi
5:15 am38 °FClear.No wind71%30.01 "Hg10 mi
4:55 am39 °FClear.3 mph68%30.00 "Hg10 mi
4:15 am40 °FClear.7 mph65%29.99 "Hg10 mi
3:55 am39 °FClear.7 mph67%30.00 "Hg10 mi
3:15 am38 °FClear.5 mph69%30.02 "Hg10 mi
Weather by CustomWeather, © 2017

See weather overviewHow to use our weather pages